Time,TemperatureF,DewpointF,PressureIn,WindDirection,WindDirectionDegrees,WindSpeedMPH,WindSpeedGustMPH,Humidity,HourlyPrecipIn,Conditions,Clouds,dailyrainin,SoftwareType,DateUTC
2013-01-26 00:02:00,58.8,52.0,30.04,WSW,246,0.0,0.0,78,0.00,,,0.17,meteohub,2013-01-26 08:02:00,
2013-01-26 00:22:00,58.6,51.8,30.01,WSW,246,0.0,0.0,78,0.00,,,0.00,meteohub,2013-01-26 08:22:00,
2013-01-26 00:42:00,58.6,52.2,30.04,WSW,246,0.0,0.0,79,0.00,,,0.00,meteohub,2013-01-26 08:42:00,
2013-01-26 01:02:00,58.6,52.2,30.04,WSW,246,0.0,0.0,79,0.00,,,0.00,meteohub,2013-01-26 09:02:00,
2013-01-26 01:22:00,58.5,52.0,30.04,WSW,246,0.0,0.0,79,0.00,,,0.00,meteohub,2013-01-26 09:22:00,
2013-01-26 01:42:00,58.3,52.2,30.01,WSW,246,0.0,0.0,80,0.00,,,0.00,meteohub,2013-01-26 09:42:00,
2013-01-26 02:02:00,58.3,52.2,30.01,WSW,246,0.0,0.0,80,0.00,,,0.00,meteohub,2013-01-26 10:02:00,
2013-01-26 02:22:00,58.3,52.5,30.01,WSW,246,0.0,0.0,81,0.00,,,0.00,meteohub,2013-01-26 10:22:00,
2013-01-26 02:42:00,58.1,52.3,30.01,WSW,246,0.0,0.0,81,0.00,,,0.00,meteohub,2013-01-26 10:42:00,
2013-01-26 03:02:00,57.9,52.2,30.01,WSW,246,0.0,0.0,81,0.00,,,0.00,meteohub,2013-01-26 11:02:00,
2013-01-26 03:22:00,57.9,52.2,29.99,WSW,245,0.0,0.0,81,0.00,,,0.00,meteohub,2013-01-26 11:22:00,
2013-01-26 03:42:00,57.9,52.5,29.99,WSW,246,0.0,0.0,82,0.00,,,0.00,meteohub,2013-01-26 11:42:00,
2013-01-26 04:02:00,58.1,52.7,29.99,WSW,246,0.0,0.0,82,0.04,,,0.04,meteohub,2013-01-26 12:02:00,
2013-01-26 04:22:00,58.3,52.9,29.99,WSW,245,0.0,0.0,82,0.04,,,0.04,meteohub,2013-01-26 12:22:00,
2013-01-26 04:42:00,58.5,53.1,29.99,WSW,246,0.0,0.0,82,0.04,,,0.04,meteohub,2013-01-26 12:42:00,
2013-01-26 05:02:00,58.5,53.1,29.99,WSW,245,0.0,0.0,82,0.00,,,0.04,meteohub,2013-01-26 13:02:00,
2013-01-26 05:22:00,58.6,53.4,29.99,WSW,245,0.0,0.0,83,0.04,,,0.08,meteohub,2013-01-26 13:22:00,
2013-01-26 05:42:00,58.8,53.6,29.99,WSW,246,0.0,0.0,83,0.08,,,0.12,meteohub,2013-01-26 13:42:00,
2013-01-26 06:02:00,58.8,53.6,29.99,WSW,245,0.0,0.0,83,0.08,,,0.12,meteohub,2013-01-26 14:02:00,
2013-01-26 06:22:00,58.8,53.6,29.99,WSW,246,0.0,0.0,83,0.08,,,0.17,meteohub,2013-01-26 14:22:00,
2013-01-26 06:42:00,58.6,53.4,29.99,SW,231,4.0,4.0,83,0.04,,,0.17,meteohub,2013-01-26 14:42:00,
2013-01-26 07:02:00,58.3,53.1,29.99,SW,231,0.0,3.0,83,0.04,,,0.17,meteohub,2013-01-26 15:02:00,
2013-01-26 07:22:00,58.5,53.6,29.99,SW,231,3.0,0.0,84,0.00,,,0.17,meteohub,2013-01-26 15:22:00,
2013-01-26 07:42:00,58.5,53.6,29.99,SW,231,0.0,0.0,84,0.00,,,0.17,meteohub,2013-01-26 15:42:00,
2013-01-26 08:02:00,58.6,54.1,30.01,SW,231,0.0,0.0,85,0.00,,,0.17,meteohub,2013-01-26 16:02:00,
2013-01-26 08:22:00,59.0,54.9,30.01,SW,231,0.0,3.0,86,0.00,,,0.17,meteohub,2013-01-26 16:22:00,
2013-01-26 08:42:00,60.1,56.5,30.01,SW,231,0.0,0.0,88,0.00,,,0.17,meteohub,2013-01-26 16:42:00,
2013-01-26 09:02:00,59.9,55.9,30.01,WSW,238,3.0,4.0,87,0.00,,,0.17,meteohub,2013-01-26 17:02:00,
2013-01-26 09:22:00,59.7,56.1,30.01,West,263,3.0,5.0,88,0.00,,,0.17,meteohub,2013-01-26 17:22:00,
2013-01-26 09:42:00,59.4,55.4,30.01,WSW,256,3.0,6.0,87,0.00,,,0.17,meteohub,2013-01-26 17:42:00,
2013-01-26 10:02:00,60.3,57.4,30.04,West,270,3.0,5.0,90,0.00,,,0.17,meteohub,2013-01-26 18:02:00,
2013-01-26 10:22:00,61.3,58.6,30.01,WNW,283,4.0,5.0,91,0.00,,,0.17,meteohub,2013-01-26 18:22:00,
2013-01-26 10:42:00,64.2,62.8,30.01,West,265,3.0,5.0,95,0.00,,,0.17,meteohub,2013-01-26 18:42:00,
2013-01-26 11:02:00,66.2,63.1,30.01,SSE,154,0.0,6.0,90,0.00,,,0.17,meteohub,2013-01-26 19:02:00,
2013-01-26 11:22:00,67.5,61.7,30.01,SSE,154,5.0,6.0,82,0.00,,,0.17,meteohub,2013-01-26 19:22:00,
2013-01-26 11:42:00,66.9,57.9,30.01,SSE,155,6.0,8.0,73,0.00,,,0.17,meteohub,2013-01-26 19:42:00,
2013-01-26 12:02:00,68.5,40.5,30.01,South,177,6.0,8.0,36,0.00,,,0.17,meteohub,2013-01-26 20:02:00,
2013-01-26 12:22:00,63.1,41.5,30.01,SW,230,8.0,11.0,45,0.00,,,0.17,meteohub,2013-01-26 20:22:00,
2013-01-26 12:42:00,62.1,43.2,30.01,WSW,243,8.0,10.0,50,0.00,,,0.17,meteohub,2013-01-26 20:42:00,
2013-01-26 13:02:00,61.5,43.7,30.01,West,262,5.0,10.0,52,0.00,,,0.17,meteohub,2013-01-26 21:02:00,
2013-01-26 13:22:00,61.7,42.3,30.01,WSW,244,6.0,9.0,49,0.00,,,0.17,meteohub,2013-01-26 21:22:00,
2013-01-26 13:42:00,60.3,41.5,30.01,West,267,6.0,10.0,50,0.00,,,0.17,meteohub,2013-01-26 21:42:00,
2013-01-26 16:42:00,56.5,43.7,30.01,WSW,256,5.0,8.0,62,0.00,,,0.17,meteohub,2013-01-27 00:42:00,
2013-01-26 17:02:00,55.6,46.4,30.01,SW,236,6.0,8.0,71,0.00,,,0.17,meteohub,2013-01-27 01:02:00,
2013-01-26 17:22:00,55.6,48.2,30.04,SW,216,3.0,6.0,76,0.00,,,0.17,meteohub,2013-01-27 01:22:00,
2013-01-26 17:42:00,55.8,49.6,30.01,SW,224,4.0,6.0,80,0.00,,,0.17,meteohub,2013-01-27 01:42:00,
2013-01-26 18:02:00,55.8,50.7,30.04,SSW,201,4.0,6.0,83,0.00,,,0.17,meteohub,2013-01-27 02:02:00,
2013-01-26 18:22:00,55.9,51.3,30.04,WSW,248,4.0,6.0,84,0.00,,,0.17,meteohub,2013-01-27 02:22:00,
2013-01-26 18:42:00,55.8,51.1,30.04,WSW,249,4.0,6.0,84,0.00,,,0.17,meteohub,2013-01-27 02:42:00,
2013-01-26 19:02:00,55.9,51.4,30.04,WSW,247,4.0,6.0,85,0.00,,,0.17,meteohub,2013-01-27 03:02:00,
2013-01-26 19:22:00,56.1,52.3,30.04,WSW,252,3.0,6.0,87,0.00,,,0.17,meteohub,2013-01-27 03:22:00,
2013-01-26 19:42:00,56.3,52.9,30.04,SW,229,4.0,6.0,88,0.00,,,0.17,meteohub,2013-01-27 03:42:00,
2013-01-26 20:02:00,56.3,53.1,30.07,WSW,256,4.0,5.0,89,0.00,,,0.17,meteohub,2013-01-27 04:02:00,
2013-01-26 20:22:00,56.7,53.8,30.07,SW,217,3.0,6.0,90,0.00,,,0.17,meteohub,2013-01-27 04:22:00,
2013-01-26 20:42:00,56.3,53.4,30.07,SW,214,5.0,6.0,90,0.00,,,0.17,meteohub,2013-01-27 04:42:00,
2013-01-26 21:02:00,56.3,53.4,30.07,WSW,245,3.0,6.0,90,0.00,,,0.17,meteohub,2013-01-27 05:02:00,
2013-01-26 21:22:00,56.3,53.4,30.07,SW,216,4.0,4.0,90,0.00,,,0.17,meteohub,2013-01-27 05:22:00,
2013-01-26 21:42:00,56.7,54.1,30.07,South,173,3.0,6.0,91,0.00,,,0.17,meteohub,2013-01-27 05:42:00,
2013-01-26 22:02:00,56.7,53.8,30.07,SSE,154,3.0,5.0,90,0.00,,,0.17,meteohub,2013-01-27 06:02:00,
2013-01-26 22:22:00,56.7,53.8,30.07,SE,137,0.0,0.0,90,0.00,,,0.17,meteohub,2013-01-27 06:22:00,
2013-01-26 22:42:00,56.8,54.0,30.07,South,171,4.0,4.0,90,0.00,,,0.17,meteohub,2013-01-27 06:42:00,
2013-01-26 23:02:00,56.8,54.0,30.10,South,180,5.0,8.0,90,0.00,,,0.17,meteohub,2013-01-27 07:02:00,
2013-01-26 23:22:00,56.8,53.6,30.10,South,188,4.0,6.0,89,0.00,,,0.17,meteohub,2013-01-27 07:22:00,
2013-01-26 23:42:00,56.8,53.2,30.10,South,171,5.0,8.0,88,0.00,,,0.17,meteohub,2013-01-27 07:42:00,